CZ-6A R/B

Last updated on Sat Jun 21 2025 00:02:06 GMT+0000 (Coordinated Universal Time)

1 64288U 25121F 25171.34057918 .00000040 00000+0 15485-4 0 9992 2 64288 86.5085 137.1574 0104332 70.9528 290.2911 13.94024961 2021
UTC large
Height (km)
Speed (km/s)
/
Latitude / Longitude
Inclination (degrees)
Orbital Period (minutes)
Azimuth
Elevation
Range (km)
Doppler Factor

Next 0 passes for location: London (51.5072 / 0.1276)

Sorry there are no passes over London.